DW1114 Weather Reports


Display with metric or nautical units.
time (UTC)temp
F
wind
direction
speed
MPH
gust
MPH
rain 1hr
in
rain 24hr
in
rain mn
in
humidity
%
barometer
mb
20260507020903 47 202 0.0 6.0 0.00 0.00 0.00 1013.6
20260507020445 48 202 0.0 6.0 0.00 0.00 0.00 1013.6
20260507015903 49 185 0.0 6.0 0.00 0.00 0.00 1013.6
20260507015445 48 228 0.0 6.0 0.00 0.00 0.00 1012.9
20260507014903 49 331 0.0 6.0 0.00 0.00 0.00 1013.2
20260507014404 49 350 0.0 5.0 0.00 0.00 0.00 1012.9
20260507013903 49 309 0.0 5.0 0.00 0.00 0.00 1013.2
20260507013403 50 298 0.0 5.0 0.00 0.00 0.00 1012.9
20260507012902 50 344 0.0 5.0 0.00 0.00 0.00 1013.2
20260507012403 50 309 0.0 4.0 0.00 0.00 0.00 1012.9
20260507011903 50 342 0.0 2.0 0.00 0.00 0.00 1012.9
20260507011403 51 326 0.0 4.0 0.00 0.00 0.00 1013.2
20260507010904 51 328 0.0 4.0 0.00 0.00 0.00 1013.6
20260507010403 51 315 2.0 3.0 0.00 0.00 0.00 1013.9
20260507005903 51 287 2.0 5.0 0.00 0.00 0.00 1013.6
20260507005425 51 278 0.0 5.0 0.00 0.00 0.00 1013.6
20260507004903 51 328 0.0 6.0 0.00 0.00 0.00 1013.2
20260507004403 51 252 1.0 6.0 0.00 0.00 0.00 1012.9
20260507003924 51 310 1.0 5.0 0.00 0.00 0.00 1012.9
20260507003424 52 287 2.0 3.0 0.00 0.00 0.00 1013.2
20260507002903 52 328 0.0 2.0 0.00 0.00 0.00 1013.6
20260507002403 52 287 0.0 5.0 0.00 0.00 0.00 1012.9
20260507001903 52 277 0.0 5.0 0.00 0.00 0.00 1012.9
20260507001404 52 282 2.0 5.0 0.00 0.00 0.00 1013.2
20260507000903 52 301 0.0 5.0 0.00 0.00 0.00 1012.9
20260507000405 53 289 3.0 5.0 0.00 0.00 0.00 1012.9
20260506235903 53 301 3.0 5.0 0.00 0.00 0.00 1012.6
20260506235424 53 317 1.0 6.0 0.00 0.00 0.00 1012.6
20260506234902 53 292 3.0 7.0 0.00 0.00 0.00 1012.9
20260506234403 53 288 5.0 7.0 0.00 0.00 0.00 1012.9
20260506233904 53 291 2.0 6.0 0.00 0.00 0.00 1012.9
20260506233403 54 300 3.0 6.0 0.00 0.00 0.00 1012.9
20260506232903 54 317 2.0 8.0 0.00 0.00 0.00 1012.6
20260506232403 54 300 2.0 8.0 0.00 0.00 0.00 1012.6
20260506231903 55 321 3.0 7.0 0.00 0.00 0.00 1012.6
20260506231403 55 300 3.0 6.0 0.00 0.00 0.00 1012.9
20260506230903 55 331 1.0 9.0 0.00 0.00 0.00 1012.6
20260506230424 55 283 5.0 9.0 0.00 0.00 0.00 1012.6
20260506225903 55 308 4.0 7.0 0.00 0.00 0.00 1012.9
20260506225424 56 343 3.0 7.0 0.00 0.00 0.00 1012.9
20260506224903 55 324 3.0 7.0 0.00 0.00 0.00 1013.2
20260506224403 54 331 1.0 6.0 0.00 0.00 0.00 1012.9
20260506223903 54 348 0.0 6.0 0.00 0.00 0.00 1012.9
20260506223424 53 271 3.0 6.0 0.00 0.00 0.00 1013.2
20260506222903 53 293 3.0 8.0 0.00 0.00 0.00 1013.2
20260506222403 53 291 4.0 8.0 0.00 0.00 0.00 1013.2
20260506221902 53 303 3.0 8.0 0.00 0.00 0.00 1012.6
20260506221403 53 288 4.0 9.0 0.00 0.00 0.00 1012.9
20260506220946 53 289 5.0 9.0 0.00 0.00 0.00 1012.9
20260506220402 53 279 4.0 9.0 0.00 0.00 0.00 1013.2
20260506215903 54 311 3.0 9.0 0.00 0.00 0.00 1012.6
20260506215404 54 336 2.0 9.0 0.00 0.00 0.00 1013.2
20260506214903 54 292 2.0 9.0 0.00 0.00 0.00 1012.9
20260506214404 54 340 2.0 7.0 0.00 0.00 0.00 1012.6
20260506213903 54 339 3.0 8.0 0.00 0.00 0.00 1012.6
20260506213424 54 354 3.0 8.0 0.00 0.00 0.00 1012.6
20260506212903 54 324 3.0 6.0 0.00 0.00 0.00 1012.6
20260506212403 54 302 3.0 8.0 0.00 0.00 0.00 1012.9
20260506211402 54 348 3.0 10.0 0.00 0.00 0.00 1012.6
20260506210903 54 331 3.0 10.0 0.00 0.00 0.00 1012.2
20260506210403 54 302 6.0 10.0 0.00 0.00 0.00 1012.6
20260506205903 54 299 3.0 6.0 0.00 0.00 0.00 1012.2
20260506205404 54 328 1.0 10.0 0.00 0.00 0.00 1012.9
20260506204903 54 310 4.0 10.0 0.00 0.00 0.00 1012.2
20260506204425 54 291 4.0 9.0 0.00 0.00 0.00 1011.9
20260506203924 54 297 4.0 6.0 0.00 0.00 0.00 1012.2
20260506203403 54 25 2.0 9.0 0.00 0.00 0.00 1012.2
20260506202903 54 328 2.0 9.0 0.00 0.00 0.00 1012.6
20260506202404 54 305 2.0 6.0 0.00 0.00 0.00 1012.9
20260506201903 54 322 1.0 7.0 0.00 0.00 0.00 1012.2
20260506201403 54 301 3.0 7.0 0.00 0.00 0.00 1012.9
20260506200903 54 0 2.0 7.0 0.00 0.00 0.00 1012.6
20260506200402 54 37 2.0 7.0 0.00 0.00 0.00 1012.2
20260506195903 54 332 3.0 7.0 0.00 0.00 0.00 1012.6
20260506195402 55 323 3.0 8.0 0.00 0.00 0.00 1011.9
20260506194903 55 18 3.0 10.0 0.00 0.00 0.00 1012.6
20260506194403 55 6 3.0 11.0 0.00 0.00 0.00 1012.2
20260506193903 55 337 3.0 11.0 0.00 0.00 0.00 1012.2
20260506193403 55 341 4.0 10.0 0.00 0.00 0.00 1012.6
20260506192903 55 316 2.0 10.0 0.00 0.00 0.00 1011.9
20260506192403 55 314 4.0 10.0 0.00 0.00 0.00 1011.9
20260506191903 55 309 5.0 10.0 0.00 0.00 0.00 1012.6
20260506191403 56 0 3.0 10.0 0.00 0.00 0.00 1012.2
20260506190903 55 328 2.0 13.0 0.00 0.00 0.00 1012.6
20260506190403 55 332 4.0 13.0 0.00 0.00 0.00 1011.9
20260506185903 55 8 3.0 12.0 0.00 0.00 0.00 1012.2
20260506185403 56 323 4.0 8.0 0.00 0.00 0.00 1011.9
20260506184903 56 350 3.0 7.0 0.00 0.00 0.00 1012.2
20260506184446 56 28 3.0 9.0 0.00 0.00 0.00 1012.2
20260506183903 56 27 3.0 9.0 0.00 0.00 0.00 1011.9
20260506183403 56 5 4.0 9.0 0.00 0.00 0.00 1011.9
20260506182903 56 336 4.0 9.0 0.00 0.00 0.00 1011.9
20260506182403 56 4 2.0 12.0 0.00 0.00 0.00 1012.2
20260506181945 56 11 3.0 12.0 0.00 0.00 0.00 1011.5
20260506181403 55 352 2.0 10.0 0.00 0.00 0.00 1011.9
20260506180903 56 40 4.0 11.0 0.00 0.00 0.00 1011.9
20260506180403 56 43 3.0 11.0 0.00 0.00 0.00 1011.9
20260506175903 55 335 3.0 10.0 0.00 0.00 0.00 1011.9
20260506175403 55 287 5.0 14.0 0.00 0.00 0.00 1012.2
20260506174903 55 298 8.0 14.0 0.00 0.00 0.00 1012.9
20260506174403 55 331 2.0 10.0 0.00 0.00 0.00 1012.2
20260506173903 55 301 5.0 11.0 0.00 0.00 0.00 1012.6
20260506173403 55 277 5.0 11.0 0.00 0.00 0.00 1012.2
20260506172903 55 11 2.0 7.0 0.00 0.00 0.00 1011.9
20260506172424 55 339 2.0 9.0 0.00 0.00 0.00 1012.6
20260506171903 55 307 3.0 9.0 0.00 0.00 0.00 1012.6
20260506171402 55 3 3.0 12.0 0.00 0.00 0.00 1012.6
20260506170903 55 11 5.0 12.0 0.00 0.00 0.00 1012.2
20260506170402 55 329 4.0 12.0 0.00 0.00 0.00 1012.2
20260506165924 55 295 8.0 12.0 0.00 0.00 0.00 1012.6
20260506165402 54 18 3.0 10.0 0.00 0.00 0.00 1012.6
20260506164903 54 332 3.0 10.0 0.00 0.00 0.00 1012.6
20260506164403 54 330 4.0 10.0 0.00 0.00 0.00 1012.6
20260506163924 54 358 2.0 8.0 0.00 0.00 0.00 1011.9
20260506163403 53 11 3.0 9.0 0.00 0.00 0.00 1012.2
20260506162924 54 19 3.0 9.0 0.00 0.00 0.00 1011.9
20260506162404 53 41 4.0 8.0 0.00 0.00 0.00 1012.2
20260506161903 53 2 4.0 10.0 0.00 0.00 0.00 1012.2
20260506161403 53 0 4.0 10.0 0.00 0.00 0.00 1011.9
20260506160924 52 337 3.0 6.0 0.00 0.00 0.00 1012.2
20260506160403 52 271 4.0 6.0 0.00 0.00 0.00 1012.6
20260506155903 52 356 2.0 10.0 0.00 0.00 0.00 1011.9
20260506155404 52 21 4.0 10.0 0.00 0.00 0.00 1012.2
20260506154904 51 356 2.0 9.0 0.00 0.00 0.00 1012.6
20260506154403 51 295 2.0 9.0 0.00 0.00 0.00 1012.9
20260506153903 51 308 5.0 9.0 0.00 0.00 0.00 1012.6
20260506153403 51 310 2.0 9.0 0.00 0.00 0.00 1012.6
20260506152905 51 331 2.0 9.0 0.00 0.00 0.00 1012.6
20260506152403 51 334 4.0 9.0 0.00 0.00 0.00 1012.6
20260506151903 50 36 3.0 8.0 0.00 0.00 0.00 1011.5
20260506151402 50 313 2.0 9.0 0.00 0.00 0.00 1011.5
20260506150903 50 322 3.0 9.0 0.00 0.00 0.00 1011.5
20260506150424 50 5 3.0 10.0 0.00 0.00 0.00 1011.2
20260506145903 50 36 4.0 10.0 0.00 0.00 0.00 1011.5
20260506145403 50 16 4.0 10.0 0.00 0.00 0.00 1011.2
20260506144903 50 5 5.0 10.0 0.00 0.00 0.00 1011.2
20260506144404 50 317 3.0 8.0 0.00 0.00 0.00 1011.5
20260506143903 49 24 4.0 9.0 0.00 0.00 0.00 1011.2
20260506143424 49 313 5.0 9.0 0.00 0.00 0.00 1011.5
20260506142924 49 16 3.0 9.0 0.00 0.00 0.00 1011.5
20260506141403 49 29 2.0 7.0 0.00 0.00 0.00 1010.9
20260506140903 48 317 3.0 7.0 0.00 0.00 0.00 1010.9
20260506140403 48 333 2.0 7.0 0.00 0.00 0.00 1010.9
20260506135903 48 327 3.0 7.0 0.00 0.00 0.00 1011.5
20260506135403 47 285 2.0 8.0 0.00 0.00 0.00 1011.2
20260506134903 47 327 4.0 8.0 0.00 0.00 0.00 1011.2
20260506134402 47 15 2.0 8.0 0.00 0.00 0.00 1011.2
20260506133903 47 319 3.0 8.0 0.00 0.00 0.00 1010.9
20260506133446 47 0 0.0 9.0 0.00 0.00 0.00 1011.5
20260506132903 46 314 3.0 9.0 0.00 0.00 0.00 1011.2
20260506132403 46 319 3.0 7.0 0.00 0.00 0.00 1010.9
20260506131905 46 1 2.0 7.0 0.00 0.00 0.00 1010.5
20260506131403 46 11 2.0 7.0 0.00 0.00 0.00 1010.9
20260506130903 45 355 2.0 7.0 0.00 0.00 0.00 1011.5
20260506130403 45 333 2.0 7.0 0.00 0.00 0.00 1010.5
20260506125903 45 328 3.0 6.0 0.00 0.00 0.00 1010.5
20260506125403 45 20 3.0 6.0 0.00 0.00 0.00 1010.2
20260506124924 45 335 2.0 5.0 0.00 0.00 0.00 1010.5
20260506124403 45 339 2.0 6.0 0.00 0.00 0.00 1010.5
20260506123903 45 349 2.0 7.0 0.00 0.00 0.00 1010.2
20260506123403 44 346 2.0 8.0 0.00 0.00 0.00 1010.2
20260506122924 44 7 3.0 8.0 0.00 0.00 0.00 1010.9
20260506122403 44 312 3.0 6.0 0.00 0.00 0.00 1010.2
20260506121945 44 318 2.0 7.0 0.00 0.00 0.00 1010.2
20260506121424 44 11 3.0 7.0 0.00 0.00 0.00 1010.2
20260506120924 44 344 2.0 7.0 0.00 0.00 0.00 1009.9
20260506120424 44 7 2.0 7.0 0.00 0.00 0.00 1009.9
20260506115903 44 338 2.0 7.0 0.00 0.00 0.00 1009.9
20260506114424 44 349 2.0 6.0 0.00 0.00 0.00 1009.9
20260506113903 44 6 2.0 7.0 0.00 0.00 0.00 1009.5
20260506113403 43 21 2.0 7.0 0.00 0.00 0.00 1008.8
20260506112903 43 9 3.0 7.0 0.00 0.00 0.00 1008.5
20260506112403 43 26 3.0 6.0 0.00 0.00 0.00 1008.5
20260506111924 43 349 1.0 6.0 0.00 0.00 0.00 1008.8
20260506111403 43 336 2.0 6.0 0.00 0.00 0.00 1009.5
20260506110903 43 3 1.0 5.0 0.00 0.00 0.00 1009.5
20260506110424 43 355 2.0 8.0 0.00 0.00 0.00 1009.9
20260506105903 43 337 3.0 8.0 0.00 0.00 0.00 1008.8
20260506105403 43 336 2.0 4.0 0.00 0.00 0.00 1008.5
20260506104903 43 322 1.0 4.0 0.00 0.00 0.00 1008.5
20260506104403 43 349 1.0 5.0 0.00 0.00 0.00 1008.8
20260506103903 43 345 2.0 7.0 0.00 0.00 0.00 1008.2
20260506103403 43 340 2.0 7.0 0.00 0.00 0.00 1008.2
20260506102903 43 356 3.0 7.0 0.00 0.00 0.00 1008.2
20260506102403 43 349 2.0 6.0 0.00 0.00 0.00 1007.8
20260506101903 43 19 3.0 11.0 0.00 0.00 0.00 1008.2
20260506101403 44 0 3.0 11.0 0.00 0.00 0.00 1008.2
20260506100903 44 357 2.0 6.0 0.00 0.00 0.00 1008.8
20260506100403 44 323 2.0 7.0 0.00 0.00 0.00 1008.8
20260506095903 44 326 3.0 8.0 0.00 0.00 0.00 1008.2
20260506095403 44 334 2.0 8.0 0.00 0.00 0.00 1008.2
20260506094903 44 318 2.0 6.0 0.00 0.00 0.00 1007.8
20260506094403 44 337 2.0 6.0 0.00 0.00 0.00 1007.5
20260506093904 44 359 0.0 6.0 0.00 0.00 0.00 1007.8
20260506093403 44 345 1.0 6.0 0.00 0.00 0.00 1007.8
20260506092903 44 351 0.0 5.0 0.00 0.00 0.00 1007.5
20260506092403 43 38 3.0 7.0 0.00 0.00 0.00 1006.8
20260506091903 44 25 3.0 9.0 0.00 0.00 0.00 1007.1
20260506091424 44 22 2.0 9.0 0.00 0.00 0.00 1007.5
20260506090903 44 22 2.0 6.0 0.00 0.00 0.00 1007.8
20260506090403 44 16 2.0 7.0 0.00 0.00 0.00 1007.5
20260506085903 43 2 2.0 7.0 0.00 0.00 0.00 1007.5
20260506085403 44 352 2.0 9.0 0.00 0.00 0.00 1007.8
20260506084903 44 33 3.0 9.0 0.00 0.00 0.00 1007.8
20260506084403 43 31 4.0 10.0 0.00 0.00 0.00 1007.1
20260506083903 43 43 2.0 10.0 0.00 0.00 0.00 1007.1
20260506083403 43 5 3.0 7.0 0.00 0.00 0.00 1007.1
20260506082903 43 12 2.0 7.0 0.00 0.00 0.00 1007.8
20260506082404 43 25 2.0 7.0 0.00 0.00 0.00 1008.2
20260506081903 43 3 2.0 11.0 0.00 0.00 0.00 1007.5
20260506081403 43 349 4.0 12.0 0.00 0.00 0.00 1007.5
20260506080903 43 12 2.0 12.0 0.00 0.00 0.00 1007.1
20260506080403 43 357 3.0 11.0 0.00 0.00 0.00 1007.8
20260506073424 44 35 3.0 12.0 0.00 0.00 0.00 1008.2
20260506072903 44 358 3.0 12.0 0.00 0.00 0.00 1007.8
20260506072403 44 345 2.0 8.0 0.00 0.00 0.00 1007.8
20260506071903 44 356 2.0 8.0 0.00 0.00 0.00 1007.5
20260506071403 44 345 2.0 7.0 0.00 0.00 0.00 1007.5
20260506070903 44 332 2.0 10.0 0.00 0.00 0.00 1007.5
20260506070403 44 345 3.0 10.0 0.00 0.00 0.00 1007.8
20260506062404 45 7 4.0 9.0 0.00 0.00 0.00 1007.5
20260506061903 45 12 3.0 9.0 0.00 0.00 0.00 1007.1
20260506061424 45 14 3.0 9.0 0.00 0.00 0.00 1006.8
20260506060924 45 29 3.0 11.0 0.00 0.00 0.00 1007.1
20260506060403 46 43 4.0 11.0 0.00 0.00 0.00 1007.5
20260506050903 47 17 3.0 11.0 0.00 0.00 0.00 1008.2
20260506050403 47 351 2.0 11.0 0.00 0.00 0.00 1007.5
20260506044924 47 348 3.0 7.0 0.00 0.00 0.00 1006.8
20260506044403 47 333 2.0 10.0 0.00 0.00 0.00 1006.8
20260506043903 47 10 2.0 12.0 0.00 0.00 0.00 1006.8
20260506043403 47 22 5.0 12.0 0.00 0.00 0.00 1006.5
20260506042903 48 25 5.0 10.0 0.00 0.00 0.00 1007.1
20260506042402 48 358 4.0 9.0 0.00 0.00 0.00 1006.8
20260506041903 48 0 3.0 9.0 0.00 0.00 0.00 1007.1
20260506041403 48 23 4.0 12.0 0.00 0.00 0.00 1007.1
20260506040903 49 357 4.0 12.0 0.00 0.00 0.00 1007.1
20260506040403 49 4 3.0 9.0 0.00 0.00 0.00 1007.1
20260506035903 49 353 3.0 9.0 0.00 0.00 0.00 1006.8
20260506035403 49 357 2.0 7.0 0.00 0.00 0.00 1006.5
20260506034904 49 19 3.0 7.0 0.00 0.00 0.00 1005.8
20260506034403 49 0 1.0 6.0 0.00 0.00 0.00 1006.5
20260506033903 49 12 2.0 6.0 0.00 0.00 0.00 1005.8
20260506033403 49 17 3.0 6.0 0.00 0.00 0.00 1006.1
20260506032902 49 19 1.0 5.0 0.00 0.00 0.00 1006.1
20260506032403 49 20 3.0 6.0 0.00 0.00 0.00 1006.5
20260506031903 49 25 3.0 6.0 0.00 0.00 0.00 1006.1
20260506031403 49 50 2.0 6.0 0.00 0.00 0.00 1006.5
20260506030903 49 29 2.0 6.0 0.00 0.00 0.00 1006.5
20260506030403 49 167 1.0 6.0 0.00 0.00 0.00 1006.1
20260506025904 49 12 3.0 6.0 0.00 0.00 0.00 1006.5
20260506025424 49 13 2.0 7.0 0.00 0.00 0.00 1006.5
20260506024903 49 17 3.0 7.0 0.00 0.00 0.00 1006.5
20260506024404 49 6 1.0 5.0 0.00 0.00 0.00 1006.8
20260506023903 49 280 0.0 7.0 0.00 0.00 0.00 1007.1
20260506023403 50 345 3.0 7.0 0.00 0.00 0.00 1007.1
20260506022903 50 17 2.0 8.0 0.00 0.00 0.00 1006.8
20260506022403 50 22 2.0 8.0 0.00 0.00 0.00 1007.1
20260506021903 50 0 3.0 7.0 0.00 0.00 0.00 1007.8
20260506021402 50 7 2.0 8.0 0.00 0.00 0.00 1007.5